Regional Weather Roundup
Issued by NWS Cleveland, OH

Home | Current Version | Previous Version | Text Only | Print | Product List | Glossary Off
Versions: 1 2 3 4 5 6 7 8 9 10 11 12 13 14 15 16 17 18 19 20 21 22 23 24 25 26 27 28 29 30 31 32 33 34 35 36 37 38 39 40 41 42 43 44 45 46 47 48 49 50

000
ASUS41 KCLE 231000
RWRCLE
OHIO REGIONAL WEATHER ROUNDUP
NATIONAL WEATHER SERVICE WILMINGTON, OH
600 AM EDT SAT JUL 23 2016

NOTE: "FAIR" INDICATES FEW OR NO CLOUDS BELOW 12,000 FEET WITH NO
SIGNIFICANT WEATHER AND/OR OBSTRUCTIONS TO VISIBILITY.

OHZ001>008-015>018-024>027-034-035-043-044-231100-
   NORTHWEST OHIO

CITY           SKY/WX    TMP DP  RH WIND       PRES   REMARKS
DEFIANCE       FAIR      71  68  90 CALM      30.01R FOG
FINDLAY        FAIR      73  68  84 CALM      30.00S
TOLEDO EXPRESS FAIR      70  70 100 SW3       29.99S
TOLEDO EXEC    FAIR      73  71  93 SW5       29.99S
LIMA           FAIR      71  71 100 CALM      30.02S
$$

OHZ009>014-019>023-028>033-038-089-231100-
   NORTHEAST OHIO

CITY           SKY/WX    TMP DP  RH WIND       PRES   REMARKS
CLE-HOPKINS    FAIR      75  71  87 SW6       30.00S
CLE-LAKEFRONT  FAIR      78  72  81 SW5       29.96S
CUY CO. ARPT   NOT AVBL
LORAIN-ELYRIA  FAIR      71  69  93 W6        30.00R FOG
ASHTABULA      FAIR      67  67 100 CALM      29.98S
AKRON-CANTON   FAIR      72  70  93 SW5       30.02R FOG
WOOSTER        NOT AVBL
MANSFIELD      FAIR      74  73  97 W5        30.03R
YOUNGSTOWN     MOCLDY    71  69  93 W3        30.00S
$$

OHZ042-051>053-060>062-070>072-077>081-231100-
  SOUTHWEST OHIO

CITY           SKY/WX    TMP DP  RH WIND       PRES   REMARKS
CINC-COVINGTON FAIR      74  72  93 N5        30.02R
CINC-LUNKEN    FOG       68  68 100 NE3       30.01S VSB 1
HAMILTON       FAIR      69  67  93 CALM      30.02S FOG
DAYTON         NOT AVBL
WRIGHT-PAT AFB NOT AVBL
DAYTON GENERAL FAIR      72  69  90 CALM      30.02F
WILMINGTON     FOG       68  68 100 CALM      30.03S VSB 1
$$

OHZ036-037-039>041-045>050-054>059-063>069-073>076-082>088-231100-
  CENTRAL AND SOUTHEAST OHIO

CITY           SKY/WX    TMP DP  RH WIND       PRES   REMARKS
COLUMBUS       FAIR      70  69  97 SE3       30.02R
OSU AIRPORT    FAIR      70  70 100 CALM      30.02R FOG
BOLTON FIELD   NOT AVBL
RICKENBACK AFB NOT AVBL
NEWARK         FOG       67  67 100 CALM      30.02S VSB 3/4
MARION         FAIR      73  71  93 SW3       30.02R FOG
LANCASTER      FAIR      67  66  97 CALM      30.03R
ZANESVILLE     MOCLDY    70  66  87 CALM      30.03R
NEW PHILLY     FAIR      72  68  87 SE3       30.02R
$$



USA.gov is the U.S. government's official web portal to all federal, state and local government web resources and services.